This demonstration page uses our WeatherBlox Daily Observations layout. Learn more.

Left ArrowRight Arrow

Hourly Observations for March 25, 2019

Temp ( °F °C ) Dew Point ( °F °C ) Humidity (%) Winds ( mph kmh ) Pressure ( in mb ) Visibility ( mi km ) Precip ( " mm )
12:57 am 00:57 Cloudy 43 6.1 40 4.4 89 89 NE 9 15 30.25 1024 10 16 0.00 0.00
1:36 am 01:36 Cloudy 43 6 41 5 93 93 NNE 9 15 30.28 1025 10 16 0.00 0.00
1:57 am 01:57 Cloudy 43 6.1 41 5 93 93 NNE 9 15 30.26 1025 10 16 0.00 0.00
2:41 am 02:41 Cloudy 43 6 41 5 93 93 N 7 11 30.30 1026 9 14 0.00 0.00
2:57 am 02:57 Cloudy 43 6.1 40 4.4 89 89 N 7 11 30.27 1025 10 16 0.00 0.00
3:57 am 03:57 Cloudy 42 5.6 40 4.4 92 92 N 9 15 30.28 1025 8 13 0.00 0.00
4:57 am 04:57 Cloudy 41 5 39 3.9 93 93 N 9 15 30.29 1026 8 13 0.00 0.00
5:57 am 05:57 Cloudy 40 4.4 39 3.9 97 97 NNW 5 7 30.30 1026 7 11 0.00 0.00
6:57 am 06:57 Cloudy with Mist and Fog 40 4.4 38 3.3 93 93 NNW 9 15 30.32 1027 6 10 0.00 0.00
7:57 am 07:57 Cloudy with Mist and Fog 39 3.9 38 3.3 96 96 NNE 9 15 30.33 1027 5 8 0.00 0.00
8:57 am 08:57 Cloudy with Mist and Fog 39 3.9 37 2.8 93 93 NE 13 20 30.33 1027 5 8 0.00 0.00
9:57 am 09:57 Cloudy with Mist and Fog 39 3.9 37 2.8 93 93 ENE 13 20 30.34 1028 6 10 0.00 0.00
10:57 am 10:57 Cloudy 39 3.9 37 2.8 93 93 NE 7 11 30.37 1028 8 13 0.00 0.00
11:35 am 11:35 Cloudy 39 4 37 3 93 93 NE 5 7 30.40 1029 9 14 0.00 0.00
11:57 am 11:57 Cloudy 41 5 38 3.3 89 89 ENE 3 6 30.38 1029 10 16 0.00 0.00
12:36 pm 12:36 undefined 41 5 37 3 87 87 NNW 7 11 30.41 1030 10 16 0.00 0.00
12:57 pm 12:57 undefined 41 5 37 2.8 86 86 Calm 30.39 1029 10 16 0.00 0.00
1:06 pm 13:06 Cloudy 43 6 37 3 81 81 NE 6 9 30.40 1029 10 16 0.00 0.00
1:57 pm 13:57 Cloudy 43 6.1 39 3.9 86 86 SE 5 7 30.37 1028 10 16 0.00 0.00
2:57 pm 14:57 Cloudy 45 7.2 38 3.3 77 77 undefined N/A 30.35 1028 10 16 0.00 0.00
3:19 pm 15:19 Cloudy 46 8 39 4 76 76 undefined N/A 30.34 1028 10 16 0.00 0.00
3:57 pm 15:57 Cloudy with Light Rain 46 7.8 39 3.9 77 77 SSE 3 6 30.34 1027 10 16 0.00 0.03
4:20 pm 16:20 Cloudy with Light Rain 46 8 39 4 76 76 SSE 3 6 30.33 1027 10 16 0.00 0.03
4:57 pm 16:57 Cloudy 48 8.9 40 4.4 74 74 S 9 15 30.31 1027 10 16 0.00 0.03
5:57 pm 17:57 Sunny 49 9.4 41 5 74 74 SSE 12 19 30.29 1026 10 16 0.00 0.00
6:57 pm 18:57 Sunny 48 8.9 40 4.4 74 74 SSE 10 17 30.31 1026 10 16 0.00 0.00
7:57 pm 19:57 Cloudy with Light Rain 47 8.3 41 5 80 80 Calm 30.32 1027 10 16 0.00 0.03
8:14 pm 20:14 Cloudy with Light Rain 46 8 43 6 87 87 NW 9 15 30.33 1027 10 16 0.01 0.25
8:57 pm 20:57 Cloudy with Light Rain 44 6.7 41 5 89 89 NE 3 6 30.32 1027 10 16 0.02 0.51
9:16 pm 21:16 Partly Cloudy 43 6 41 5 93 93 E 7 11 30.33 1027 10 16 0.00 0.03
9:57 pm 21:57 Mostly Cloudy 42 5.6 41 5 96 96 SE 6 9 30.33 1027 10 16 0.00 0.03
10:57 pm 22:57 Cloudy 42 5.6 40 4.4 92 92 SE 7 11 30.35 1028 8 13 0.00 0.00
11:57 pm 23:57 Cloudy with Mist and Fog 41 5 40 4.4 96 96 SSE 7 11 30.34 1028 6 10 0.00 0.00

Powered by AerisWeather